#timestamp,LO_Frequency,Hit,Temp,Hum 
1478174415.7,286046996.9,N,0.0,0.0
1478174435.5,286046995.6,N,0.0,0.0
1478174455.3,286046995.3,N,0.0,0.0
1478174475.2,286046997.1,N,0.0,0.0
1478174495.9,286046999.4,N,0.0,0.0
1478174515.7,286046997.0,N,0.0,0.0
1478174535.6,286046999.5,N,0.0,0.0
1478174555.4,286046999.5,N,0.0,0.0
1478174575.2,286046998.7,N,0.0,0.0
1478174595.1,286046996.0,N,0.0,0.0
1478174596.0,286046996.0,N,0.0,0.0
1478174615.8,286046991.7,N,0.0,0.0
1478174635.6,286046991.5,N,0.0,0.0
1478174655.5,286046993.2,N,0.0,0.0
1478174675.3,286046990.9,N,0.0,0.0
1478174695.1,286046994.4,N,0.0,0.0
1478174715.9,286046992.0,N,0.0,0.0
1478174735.7,286046994.1,N,0.0,0.0
1478174755.6,286046997.7,N,0.0,0.0
1478174775.4,286046995.3,N,0.0,0.0
1478174795.2,286046999.4,N,0.0,0.0
1478174815.1,286047000.2,N,0.0,0.0
1478174816.0,286047000.2,N,0.0,0.0
1478174835.8,286047002.7,N,0.0,0.0
1478174855.6,286047000.8,N,0.0,0.0
1478174875.5,286047002.5,N,0.0,0.0
1478174895.3,286046998.7,N,0.0,0.0
1478174915.1,286046998.6,N,0.0,0.0
1478174935.9,286047000.2,N,0.0,0.0
1478174955.7,286047001.0,N,0.0,0.0
1478174975.5,286047001.2,N,0.0,0.0
1478174995.4,286046999.7,N,0.0,0.0
1478175015.2,286046997.6,N,0.0,0.0
1478175035.0,286046994.0,N,0.0,0.0
1478175036.0,286046994.0,N,0.0,0.0
1478175055.8,286046994.8,N,0.0,0.0
1478175075.6,286046990.7,N,0.0,0.0
1478175095.5,286046993.1,N,0.0,0.0
1478175115.3,286046994.0,N,0.0,0.0
1478175135.1,286046994.4,N,0.0,0.0
1478175155.9,286046993.7,N,0.0,0.0
1478175175.7,286046995.0,N,0.0,0.0
1478175195.5,286046996.5,N,0.0,0.0
1478175215.4,286046999.1,N,0.0,0.0
1478175235.2,286046996.9,N,0.0,0.0
1478175255.0,286046996.7,N,0.0,0.0
1478175255.9,286046996.7,N,0.0,0.0
1478175275.8,286046996.7,N,0.0,0.0
1478175295.6,286046996.5,N,0.0,0.0
1478175315.4,286046999.5,N,0.0,0.0
1478175335.3,286046997.7,N,0.0,0.0
1478175355.1,286046997.1,N,0.0,0.0
1478175375.9,286047001.1,N,0.0,0.0
1478175395.7,286047000.7,N,0.0,0.0
1478175415.5,286046999.7,N,0.0,0.0
1478175435.4,286046998.1,N,0.0,0.0
1478175455.2,286046996.9,N,0.0,0.0
1478175475.0,286046998.0,N,0.0,0.0
1478175475.9,286046998.0,N,0.0,0.0
1478175495.8,286046994.5,N,0.0,0.0
1478175515.6,286046992.1,N,0.0,0.0
1478175535.4,286046995.4,N,0.0,0.0
1478175555.3,286046993.4,N,0.0,0.0
1478175575.1,286046994.2,N,0.0,0.0
1478175595.8,286046996.1,N,0.0,0.0
1478175615.7,286046995.0,N,0.0,0.0
1478175635.5,286046991.8,N,0.0,0.0
1478175655.4,286046990.4,N,0.0,0.0
1478175675.2,286046988.6,N,0.0,0.0
1478175695.0,286046991.1,N,0.0,0.0
1478175695.9,286046991.1,N,0.0,0.0
1478175715.8,286046990.3,N,0.0,0.0
1478175735.6,286046989.3,N,0.0,0.0
1478175755.4,286046992.5,N,0.0,0.0
1478175775.3,286046991.3,N,0.0,0.0
1478175795.1,286046992.4,N,0.0,0.0
1478175815.8,286046994.4,N,0.0,0.0
1478175835.7,286046996.3,N,0.0,0.0
1478175855.5,286046996.3,N,0.0,0.0
1478175875.3,286046995.2,N,0.0,0.0
1478175895.2,286046996.8,N,0.0,0.0
1478175915.0,286046999.3,N,0.0,0.0
1478175915.9,286046999.3,N,0.0,0.0
1478175935.8,286046997.3,N,0.0,0.0
1478175955.6,286046996.5,N,0.0,0.0
1478175975.4,286046995.9,N,0.0,0.0
1478175995.3,286046995.4,N,0.0,0.0
1478176015.1,286046995.9,N,0.0,0.0
1478176016.0,286046995.9,N,0.0,0.0
1478176035.8,286046996.3,N,0.0,0.0
1478176055.7,286046995.7,N,0.0,0.0
1478176075.5,286046994.2,N,0.0,0.0
1478176095.3,286046995.5,N,0.0,0.0
1478176115.2,286046998.0,N,0.0,0.0
1478176135.0,286046993.5,N,0.0,0.0
1478176135.9,286046993.5,N,0.0,0.0
1478176155.7,286046993.6,N,0.0,0.0
1478176175.6,286046996.1,N,0.0,0.0
1478176195.4,286046997.4,N,0.0,0.0
1478176215.2,286046996.4,N,0.0,0.0
1478176235.1,286046996.1,N,0.0,0.0
1478176236.0,286046996.1,N,0.0,0.0
1478176255.8,286046992.6,N,0.0,0.0
1478176275.7,286046990.2,N,0.0,0.0
1478176295.5,286046990.2,N,0.0,0.0
1478176315.3,286046990.9,N,0.0,0.0
1478176335.2,286046991.6,N,0.0,0.0
1478176355.9,286046987.6,N,0.0,0.0
1478176375.7,286046988.1,N,0.0,0.0
1478176395.6,286046989.9,N,0.0,0.0
1478176415.4,286046987.2,N,0.0,0.0
1478176435.2,286046987.1,N,0.0,0.0
1478176455.1,286046985.5,N,0.0,0.0
1478176456.0,286046985.5,N,0.0,0.0
1478176475.8,286046985.4,N,0.0,0.0
1478176495.6,286046985.4,N,0.0,0.0
1478176515.5,286046984.4,N,0.0,0.0
1478176535.3,286046985.0,N,0.0,0.0
1478176555.2,286046982.6,N,0.0,0.0
1478176575.9,286046982.4,N,0.0,0.0
1478176595.7,286046981.6,N,0.0,0.0
1478176615.6,286046980.8,N,0.0,0.0
1478176635.4,286046979.0,N,0.0,0.0
1478176655.2,286046980.0,N,0.0,0.0
1478176675.1,286046979.6,N,0.0,0.0
1478176676.0,286046979.6,N,0.0,0.0
1478176695.8,286046979.7,N,0.0,0.0
1478176715.6,286046980.2,N,0.0,0.0
1478176735.5,286046977.4,N,0.0,0.0
1478176755.3,286046978.4,N,0.0,0.0
1478176775.1,286046977.7,N,0.0,0.0
1478176795.9,286046980.1,N,0.0,0.0
1478176815.7,286046978.5,N,0.0,0.0
1478176835.6,286046976.9,N,0.0,0.0
1478176855.4,286046977.1,N,0.0,0.0
1478176875.2,286046976.4,N,0.0,0.0
1478176895.1,286046974.2,N,0.0,0.0
1478176896.0,286046974.2,N,0.0,0.0
1478176915.8,286046974.8,N,0.0,0.0
1478176935.6,286046976.3,N,0.0,0.0
1478176955.5,286046972.8,N,0.0,0.0
1478176975.3,286046971.5,N,0.0,0.0
1478176995.1,286046971.1,N,0.0,0.0
1478177015.9,286046970.9,N,0.0,0.0
1478177035.7,286046969.7,N,0.0,0.0
1478177055.5,286046970.9,N,0.0,0.0
1478177075.4,286046972.4,N,0.0,0.0
1478177095.2,286046969.4,N,0.0,0.0
1478177115.0,286046970.2,N,0.0,0.0
1478177116.0,286046970.2,N,0.0,0.0
1478177135.8,286046968.4,N,0.0,0.0
1478177155.6,286046969.3,N,0.0,0.0
1478177175.5,286046968.5,N,0.0,0.0
1478177195.3,286046968.8,N,0.0,0.0
1478177215.1,286046968.0,N,0.0,0.0
1478177235.9,286046966.7,N,0.0,0.0
1478177255.7,286046966.3,N,0.0,0.0
1478177275.5,286046964.5,N,0.0,0.0
1478177295.4,286046965.5,N,0.0,0.0
1478177315.2,286046969.2,N,0.0,0.0
1478177335.0,286046961.4,N,0.0,0.0
1478177335.9,286046961.4,N,0.0,0.0
1478177355.8,286046964.3,N,0.0,0.0
1478177375.6,286046964.1,N,0.0,0.0
1478177395.4,286046961.2,N,0.0,0.0
1478177415.3,286046964.3,N,0.0,0.0
1478177435.1,286046961.6,N,0.0,0.0
1478177455.9,286046962.0,N,0.0,0.0
1478177475.7,286046960.3,N,0.0,0.0
1478177495.5,286046959.8,N,0.0,0.0
1478177515.4,286046960.3,N,0.0,0.0
1478177535.2,286046962.6,N,0.0,0.0
1478177555.0,286046960.0,N,0.0,0.0
1478177555.9,286046960.0,N,0.0,0.0
1478177575.8,286046962.6,N,0.0,0.0
1478177595.6,286046962.6,N,0.0,0.0
1478177615.4,286046960.7,N,0.0,0.0
1478177635.3,286046958.4,N,0.0,0.0
1478177655.1,286046958.1,N,0.0,0.0
1478177675.8,286046958.3,N,0.0,0.0
1478177695.7,286046958.3,N,0.0,0.0
1478177715.5,286046960.8,N,0.0,0.0
1478177735.3,286046958.9,N,0.0,0.0
1478177755.2,286046958.8,N,0.0,0.0
1478177775.0,286046956.5,N,0.0,0.0
1478177775.9,286046956.5,N,0.0,0.0
1478177795.8,286046959.0,N,0.0,0.0
1478177815.6,286046956.5,N,0.0,0.0
1478177835.4,286046955.0,N,0.0,0.0
1478177855.3,286046955.5,N,0.0,0.0
1478177875.1,286046955.9,N,0.0,0.0
1478177876.0,286046955.9,N,0.0,0.0
1478177895.8,286046953.8,N,0.0,0.0
1478177915.7,286046954.6,N,0.0,0.0
1478177935.5,286046952.1,N,0.0,0.0
1478177955.3,286046954.4,N,0.0,0.0
1478177975.2,286046951.8,N,0.0,0.0
1478177995.0,286046954.4,N,0.0,0.0
1478177995.9,286046954.4,N,0.0,0.0
